www.pogodaiklimat.ru

Погода и климат >> Архив погоды >> Канада >> Wager Bay


ПОГОДА в Wager Bay

  • Прогноз погоды в Wager Bay
  • Монитор погоды в Wager Bay
  • Климат города

АРХИВ ПОГОДЫ в Wager Bay

Время (UTC), дата Ветер
(напр.,м/с)
 
Видим.   Явления Облачность Т
(С)
Тd
(С)
f
(%)
Тe
(С)
Тes
(С)
Комфортность P
(гПа)
Po
(гПа)
Тmin
(С)
Tmax
(С)
R
(мм)
R24
(мм)
S
(см)
06 12.10 СВ 5 н/о н/о -5.6 -8.7 79 -13 -13 1010.0 1007.7 -8.7 -0.1
09 12.10 СВ 4 н/о н/о -5.3 -9.1 75 -11 -11 1009.0 1006.7
12 12.10 СВ 4 н/о н/о -6.0 -9.6 76 -13 -13 1007.9 1005.6 -6.4 -0.1
15 12.10 З 1 н/о н/о -5.7 -8.6 80 -8 -8 1006.9 1004.6
18 12.10 З 3 н/о н/о -2.2 -8.7 61 -7 -7 1006.3 1004.0 -7.1 -2.1
21 12.10 СЗ 6 н/о н/о -1.9 -7.9 64 -8 -8 1005.8 1003.5
00 13.10 СВ 5 н/о н/о -4.0 -6.2 85 -11 -11 1006.0 1003.7 -7.1 -1.2
03 13.10 СВ 5 н/о н/о -4.0 -6.2 85 -11 -11 1006.0 1003.7 -7.1 -1.2
06 13.10 З 1 н/о н/о -3.1 -5.7 82 -5 -5 1006.6 1004.3 -7.1 -1.2
09 13.10 н/о н/о -4.9 -8.3 77 1007.3 1005.0
12 13.10 С 5 н/о н/о -6.1 -9.2 79 -13 -13 1008.2 1005.9 -6.2 -1.2
15 13.10 С 11 н/о н/о -5.4 -9.4 73 -15 -15 1008.2 1005.9
18 13.10 С 10 н/о н/о -5.6 -11.4 64 -15 -15 1009.7 1007.4 -7.9 -3.0
21 13.10 С 8 н/о н/о -6.6 -11.9 66 -15 -15 1010.8 1008.4
00 14.10 С 4 н/о н/о -8.4 -11.9 76 -15 -15 1011.6 1009.2 -9.1 -5.3
03 14.10 С 3 н/о н/о -10.3 -13.7 76 -16 -16 1011.7 1009.3
06 14.10 СЗ 5 н/о н/о -8.2 -11.7 76 -15 -15 1011.4 1009.0 -10.3 -3.0
09 14.10 СЗ 6 н/о н/о -8.6 -13.3 69 -17 -17 1011.4 1009.0
12 14.10 СЗ 7 н/о н/о -8.7 -12.1 76 -18 -18 1011.8 1009.4 -10.3 -3.0
15 14.10 СЗ 8 н/о н/о -8.7 -14.0 65 -18 -18 1011.8 1009.4
18 14.10 СЗ 7 н/о н/о -8.8 -14.4 64 -18 -18 1012.0 1009.6 -10.3 -7.7
21 14.10 СЗ 11 н/о н/о -8.7 -14.1 65 -19 -19 1012.1 1009.7
00 15.10 СЗ 8 н/о н/о -8.7 -13.3 69 -18 -18 1011.9 1009.5 -10.1 -8.2
03 15.10 С 5 н/о н/о -9.8 -13.7 73 -18 -18 1011.1 1008.7
06 15.10 С 6 н/о н/о -10.5 -13.8 77 -19 -19 1010.4 1008.0 -11.2 -7.7
09 15.10 СЗ 5 н/о н/о -10.6 -13.5 79 -19 -19 1009.8 1007.4
12 15.10 СЗ 7 н/о н/о -11.3 -13.9 81 -21 -21 1009.2 1006.8 -11.4 -7.7
15 15.10 СЗ 4 н/о н/о -11.1 -14.5 76 -18 -18 1009.0 1006.6
18 15.10 СЗ 7 н/о н/о -8.9 -14.7 63 -18 -18 1008.6 1006.2 -12.1 -8.6
21 15.10 СЗ 6 н/о н/о -9.1 -13.9 68 -17 -17 1008.2 1005.8
00 16.10 СЗ 6 н/о н/о -10.3 -14.5 71 -19 -19 1008.6 1006.2 -12.1 -8.3
03 16.10 СЗ 6 н/о н/о -11.7 -15.8 72 -21 -21 1008.2 1005.8
06 16.10 СЗ 5 н/о н/о -13.4 -17.0 74 -22 -22 1008.0 1005.6 -13.9 -8.3 20
09 16.10 С 4 н/о н/о -14.2 -17.4 77 -21 -21 1007.9 1005.5
12 16.10 СВ 3 н/о н/о -13.7 -17.5 73 -19 -19 1008.1 1005.7 -14.5 -8.3
15 16.10 СЗ 7 н/о н/о -12.2 -16.6 70 -21 -21 1008.1 1005.7
18 16.10 СЗ 5 н/о н/о -10.5 -16.2 63 -18 -18 1008.6 1006.2 -14.5 -10.2
21 16.10 СЗ 6 н/о н/о -10.3 -15.5 66 -19 -19 1009.3 1006.9
00 17.10 С 6 н/о н/о -11.0 -15.7 68 -20 -20 1010.3 1007.9 -14.5 -9.2
03 17.10 С 10 н/о н/о -12.7 -17.3 68 -24 -24 1010.4 1008.0
06 17.10 С 6 н/о н/о -13.5 -17.1 74 -23 -23 1011.1 1008.7 -14.5 -9.2
09 17.10 СЗ 9 н/о н/о -13.2 -16.7 75 -24 -24 1010.9 1008.5
12 17.10 СЗ 4 н/о н/о -14.2 -17.3 77 -22 -22 1011.2 1008.8 -14.3 -9.2
15 17.10 СЗ 5 н/о н/о -12.1 -16.2 71 -20 -20 1010.3 1007.9
18 17.10 СЗ 5 н/о н/о -9.2 -13.5 71 -17 -17 1009.6 1007.2 -14.9 -8.9
21 17.10 СЗ 5 н/о н/о -8.9 -11.5 81 -17 -17 1009.2 1006.8
00 18.10 С 3 н/о н/о -11.2 -13.1 86 -17 -17 1008.7 1006.3 -14.9 -8.4
03 18.10 С 2 н/о н/о -10.1 -11.5 89 -15 -15 1007.9 1005.5 0.2
06 18.10 С 3 н/о {осадки} н/о -9.9 -11.3 89 -15 -15 1007.3 1004.9 -14.9 -8.4 0.2
09 18.10 С 2 н/о н/о -9.4 -10.5 92 -14 -14 1006.7 1004.3 0.4
12 18.10 СВ 2 н/о {осадки} н/о -10.5 -11.8 90 -15 -15 1006.2 1003.8 -11.2 -8.4 0.6 <0.5
15 18.10 С 2 н/о н/о -9.4 -11.6 84 -14 -14 1006.0 1003.6
18 18.10 СЗ 4 н/о н/о -9.6 -12.8 77 -16 -16 1005.9 1003.5 -11.5 -8.9
21 18.10 С 3 н/о н/о -10.5 -13.2 81 -16 -16 1006.0 1003.6
00 19.10 СВ 4 н/о н/о -12.4 -14.5 84 -20 -20 1006.2 1003.8 -12.5 -8.9

 

Местоположение метеостанции Wager Bay (Канада): широта 65.88 долгота -89.43 высота над уровнем моря 18 м.

В архиве по умолчанию представлена погода в Wager Bay за последнюю неделю. Архивные данные за месяц целиком и за предыдущие месяцы, начиная с января 2011 года, Вы можете получить, выбрав интересующий диапазон дат из раскрывающегося списка и нажав кнопку "Ввод!".


*Определитесь, кто Вы:
робот инопланетянин человек

Внимание! Время в таблицах - всемирное. Для получения местного времени необходимо прибавить поправку, которая в Wager Bay равна -6 ч.

Смотрите также архив погоды в соседних городах и на ближайших метеорологических станциях:

Погода в Pelly Bay (Канада) (284 км)
Погода в Kugaaruk climate (Канада) (295 км)
Погода в Back River MAPS (Канада) (321 км)
Погода в Coral Harbour Arpt (Канада) (340 км)
Погода в Baker Lake Climate (Канада) (353 км)
Погода в Baker Lake Airport (Канада) (357 км)
Погода в Rankin Inlet (Канада) (364 км)
Погода в Shepherd Bay (Канада) (369 км)
Погода в Gjoa Haven Climate (Канада) (412 км)
Погода в Spence bay (Канада) (444 км)

Пояснения к столбцам:

Ветер - указаны скорость ветра в м/с - средняя за 10 мин, порывы в срок и между сроками (в фигурных скобках) и направление, откуда дует ветер: С - северный, СВ - северо-восточный, В - восточный, ЮВ - юго-восточный, Ю - южный, ЮЗ - юго-западный, З - западный, СЗ - северо-западный.
Видимость - горизонтальная дальность видимости в метрах или километрах. При видимости от 1 до 10 км при отсутствии осадков обычно наблюдается дымка, при ухудшении видимости до 1 км и менее - туман. В сухую погоду видимость может ухудшаться дымом, пылью или мглою.
Явления - указаны атмосферные явления, наблюдавшиеся в срок или в последний час перед сроком; фигурными скобками обозначены явления, наблюдавшиеся между сроками (за 1-3 часа до срока); квадратными скобками обозначены град или гололедные отложения с указанием их диаметра в мм.
Облачность - указаны через наклонную черту общая и нижняя облачность в баллах и высота нижней границы облаков в метрах; квадратными скобками обозначены формы облаков: Ci - перистые, Cs - перисто-слоистые, Cc - перисто-кучевые, Ac - высококучевые, As - высокослоистые, Sc - слоисто-кучевые, Ns - слоисто-дождевые, Cu - кучевые, Cb - кучево-дождевые. Подробнее классификацию облаков см. в Атласе облаков (PDF).
T - Температура воздуха - температура, измеренная на высоте 2 м над землей.
Td - Температура точки росы - температура, при понижении до которой содержащийся в воздухе водяной пар достигнет насыщения.
f - Относительная влажность воздуха - влажноcть воздуха, измеренная на высоте 2 м над землей.
Te - Эффективная температура - температура, которую ощущает одетый по сезону человек в тени. Характеристика душности погоды. При расчете учитывается влияние влажности воздуха и скорости ветра на теплоощущения человека.
Tes - Эффективная температура на солнце - температура, которую ощущает человек, с поправкой на солнечный нагрев. Характеристика знойности погоды. Зависит от высоты солнца над горизонтом, облачности и скорости ветра. Ночью, в пасмурную погоду, а также при ветре 12 м/с и более поправка равна нулю.
P - Атмосферное давление - приведенное к уровню моря атмосферное давление.
Po - Атмосферное давление - измеренное на уровне метеостанции атмосферное давление.
Tmin - Минимальная температура - минимум температуры воздуха на высоте 2 м над землей.
Tmax - Максимальная температура - максимум температуры воздуха на высоте 2 м над землей.
R - Количество осадков - Количество выпавших осадков за период времени, мм. При наведении курсора мыши на число - период времени, за который выпало указанное количество осадков.
R24 - Количество осадков - Количество выпавших осадков за 24 часа, мм.
S - Снежный покров - Высота снежного покрова, см. При наведении курсора мыши на число - состояние снежного покрова и степень покрытия местности в баллах.